Home   Weather   Kuujjuaq   Past weeks
Flag for Canada

Past Weather in Kuujjuaq, Quebec, Canada — Yesterday and Last 2 Weeks

Now
55 °F

Scattered clouds.


Feels Like: 54 °F
Forecast: 56 / 43 °F
Wind: 7 mph from Northeast

Location: Kuujjuaq

Current Time: Jul 22, 2019 at 9:26:23 pm

Latest Report: Jul 22, 2019 at 8:00 pm


Visibility: 15 mi

Pressure: 29.81 "Hg

Humidity: 63%

Dew Point: 43 °F

Location of KuujjuaqLocation

Past Weather in Kuujjuaq — Graph

°F

Kuujjuaq Temperature Yesterday

Maximum temperature yesterday: 55 °F (at 12:00 am)
Minimum temperature yesterday: 46 °F (at 11:00 pm)
Average temperature yesterday: 51 °F

High & Low Weather Summary for the Past Weeks

 TemperatureHumidityPressure
High81 °F (Jul 19, 2:00 pm)100% (Jul 8, 2:00 am)30.21 "Hg (Jul 8, 2:00 am)
Low37 °F (Jul 10, 3:12 am)37% (Jul 19, 12:00 pm)29.23 "Hg (Jul 17, 1:18 am)
Average53 °F82%29.72 "Hg
* Reported Jul 7 8:00 pm — Jul 22 8:00 pm, Kuujjuaq. Weather by CustomWeather, © 2019

Note: Actual official high and low records may vary slightly from our data, if they occured in-between our weather recording intervals... More about our weather records

Advertising

Kuujjuaq Weather History for the Previous 24 Hours

Scroll right to see more
 ConditionsComfort  
Time TempWeatherWind HumidityBarometerVisibility
8:00 pm
Mon, Jul 22
55 °FScattered clouds.7 mph63%29.81 "Hg15 mi
7:00 pm57 °FScattered clouds.9 mph63%29.81 "Hg15 mi
6:00 pm57 °FScattered clouds.9 mph59%29.80 "Hg15 mi
5:00 pm61 °FScattered clouds.10 mph55%29.79 "Hg15 mi
4:00 pm61 °FBroken clouds.12 mph55%29.78 "Hg15 mi
3:00 pm63 °FBroken clouds.12 mph56%29.78 "Hg15 mi
2:00 pm61 °FBroken clouds.13 mph55%29.76 "Hg15 mi
1:00 pm61 °FBroken clouds.8 mph52%29.76 "Hg15 mi
12:00 pm61 °FBroken clouds.9 mph48%29.77 "Hg15 mi
11:00 am59 °FBroken clouds.7 mph48%29.78 "Hg15 mi
10:00 am57 °FBroken clouds.5 mph63%29.78 "Hg15 mi
9:00 am55 °FPartly sunny.6 mph67%29.78 "Hg15 mi
8:00 am52 °FScattered clouds.2 mph82%29.78 "Hg15 mi
7:00 am48 °FScattered clouds.3 mph87%29.78 "Hg15 mi
6:00 am45 °FPartly sunny.2 mph93%29.77 "Hg15 mi
5:00 am39 °FScattered clouds.6 mph100%29.76 "Hg15 mi
4:00 am41 °FPassing clouds.No wind100%29.75 "Hg15 mi
3:00 am41 °FPassing clouds.2 mph93%29.74 "Hg15 mi
2:00 am43 °FPassing clouds.No wind93%29.73 "Hg15 mi
1:00 am45 °FPassing clouds.3 mph87%29.73 "Hg15 mi
12:00 am45 °FPassing clouds.5 mph87%29.72 "Hg15 mi
11:00 pm
Sun, Jul 21
46 °FPartly cloudy.7 mph82%29.72 "Hg15 mi
10:00 pm48 °FPartly cloudy.6 mph76%29.71 "Hg15 mi
9:00 pm50 °FBroken clouds.6 mph76%29.70 "Hg15 mi
Weather by CustomWeather, © 2019

See weather overview